When you browse on this site, cookies collect data to enhance your experience and personalize the content and advertising you see.
Visit our Privacy Policy to learn more. By continuing to use the site, you agree to this use of cookies and data.
  • In United Kingdom
  • List of Countries
  • For 7 days
  • Water Temperature
  • Satellite Maps
  • Weather Map
  • Weather Widgets
  • user-avatar
    Login

    Hourly Weather Montecatini Terme

    Today, 20 March, Wednesday

    Time Temperature Precipitation Wind Pressure Humidity
    00:00 +6°C° 0 mm 4 mps 765 mmHg 67%
    01:00 +6°C° 0 mm 2 mps 765 mmHg 72%
    02:00 +5°C° 0 mm 3 mps 765 mmHg 70%
    03:00 +5°C° 0 mm 4 mps 765 mmHg 68%
    04:00 +5°C° 0 mm 4 mps 765 mmHg 67%
    05:00 +5°C° 0 mm 5 mps 766 mmHg 66%
    06:00 +5°C° 0 mm 5 mps 766 mmHg 65%
    07:00 +6°C° 0 mm 5 mps 766 mmHg 63%
    08:00 +7°C° 0 mm 6 mps 767 mmHg 58%
    09:00 +9°C° 0 mm 7 mps 767 mmHg 53%
    10:00 +10°C° 0 mm 7 mps 767 mmHg 47%
    11:00 +11°C° 0 mm 7 mps 767 mmHg 45%
    12:00 +12°C° 0 mm 7 mps 767 mmHg 42%
    13:00 +12°C° 0 mm 7 mps 767 mmHg 40%
    14:00 +12°C° 0 mm 7 mps 767 mmHg 39%
    15:00 +12°C° 0 mm 7 mps 767 mmHg 39%
    16:00 +13°C° 0 mm 6 mps 767 mmHg 39%
    17:00 +10°C° 0 mm 6 mps 767 mmHg 43%
    18:00 +9°C° 0 mm 5 mps 767 mmHg 46%
    19:00 +7°C° 0 mm 4 mps 767 mmHg 49%
    20:00 +7°C° 0 mm 4 mps 767 mmHg 50%
    21:00 +7°C° 0 mm 4 mps 768 mmHg 51%
    22:00 +7°C° 0 mm 4 mps 768 mmHg 52%
    23:00 +7°C° 0 mm 5 mps 768 mmHg 55%

    Tomorrow, 21 March, Thursday

    Time Temperature Precipitation Wind Pressure Humidity
    00:00 +7°C° 0 mm 5 mps 768 mmHg 57%
    01:00 +7°C° 0 mm 5 mps 768 mmHg 60%
    02:00 +7°C° 0 mm 5 mps 768 mmHg 61%
    03:00 +6°C° 0 mm 5 mps 768 mmHg 62%
    04:00 +6°C° 0 mm 5 mps 768 mmHg 63%
    05:00 +6°C° 0 mm 5 mps 768 mmHg 62%
    06:00 +6°C° 0 mm 5 mps 768 mmHg 62%
    07:00 +6°C° 0 mm 5 mps 768 mmHg 62%
    08:00 +8°C° 0 mm 5 mps 769 mmHg 57%
    09:00 +10°C° 0 mm 6 mps 769 mmHg 52%
    10:00 +11°C° 0 mm 6 mps 769 mmHg 47%
    11:00 +13°C° 0 mm 6 mps 769 mmHg 45%
    12:00 +15°C° 0 mm 6 mps 769 mmHg 43%
    13:00 +16°C° 0 mm 5 mps 769 mmHg 41%
    14:00 +16°C° 0 mm 5 mps 768 mmHg 41%
    15:00 +16°C° 0 mm 5 mps 768 mmHg 41%
    16:00 +16°C° 0 mm 5 mps 767 mmHg 41%
    17:00 +14°C° 0 mm 4 mps 767 mmHg 44%
    18:00 +13°C° 0 mm 4 mps 767 mmHg 48%
    19:00 +11°C° 0 mm 4 mps 768 mmHg 51%
    20:00 +11°C° 0 mm 3 mps 768 mmHg 50%
    21:00 +10°C° 0 mm 3 mps 768 mmHg 50%
    22:00 +10°C° 0 mm 3 mps 768 mmHg 50%
    23:00 +10°C° 0 mm 3 mps 768 mmHg 50%

    Day after tomorrow, 22 March, Friday

    Time Temperature Precipitation Wind Pressure Humidity
    00:00 +9°C° 0 mm 3 mps 769 mmHg 51%
    01:00 +9°C° 0 mm 3 mps 769 mmHg 51%
    02:00 +9°C° 0 mm 3 mps 768 mmHg 52%
    03:00 +9°C° 0 mm 3 mps 768 mmHg 52%
    04:00 +9°C° 0 mm 3 mps 768 mmHg 53%
    05:00 +9°C° 0 mm 3 mps 768 mmHg 53%
    06:00 +9°C° 0 mm 2 mps 768 mmHg 54%
    07:00 +8°C° 0 mm 2 mps 768 mmHg 54%
    08:00 +11°C° 0 mm 3 mps 768 mmHg 49%
    09:00 +14°C° 0 mm 3 mps 768 mmHg 43%
    10:00 +17°C° 0 mm 3 mps 768 mmHg 37%
    11:00 +18°C° 0 mm 3 mps 768 mmHg 35%
    12:00 +20°C° 0 mm 3 mps 768 mmHg 32%
    13:00 +21°C° 0 mm 3 mps 767 mmHg 30%
    14:00 +21°C° 0 mm 2 mps 767 mmHg 31%
    15:00 +21°C° 0 mm 2 mps 767 mmHg 32%
    16:00 +21°C° 0 mm 2 mps 766 mmHg 33%
    17:00 +18°C° 0 mm 2 mps 766 mmHg 39%
    18:00 +16°C° 0 mm 2 mps 766 mmHg 44%
    19:00 +14°C° 0 mm 2 mps 766 mmHg 50%
    20:00 +13°C° 0 mm 2 mps 767 mmHg 50%
    21:00 +13°C° 0 mm 2 mps 767 mmHg 51%
    22:00 +12°C° 0 mm 2 mps 767 mmHg 51%
    23:00 +12°C° 0 mm 2 mps 767 mmHg 50%

    23 March, Saturday

    Time Temperature Precipitation Wind Pressure Humidity
    00:00 +10°C° 0 mm 2 mps 767 mmHg 50%
    01:00 +10°C° 0 mm 2 mps 767 mmHg 49%
    02:00 +10°C° 0 mm 2 mps 767 mmHg 49%
    03:00 +9°C° 0 mm 2 mps 766 mmHg 48%
    04:00 +9°C° 0 mm 2 mps 766 mmHg 48%
    05:00 +9°C° 0 mm 2 mps 766 mmHg 49%
    06:00 +9°C° 0 mm 2 mps 766 mmHg 50%
    07:00 +9°C° 0 mm 2 mps 766 mmHg 51%
    08:00 +13°C° 0 mm 2 mps 766 mmHg 46%
    09:00 +16°C° 0 mm 2 mps 766 mmHg 40%
    10:00 +19°C° 0 mm 2 mps 766 mmHg 34%
    11:00 +20°C° 0 mm 2 mps 766 mmHg 32%
    12:00 +21°C° 0 mm 2 mps 766 mmHg 29%
    13:00 +24°C° 0 mm 2 mps 765 mmHg 26%
    14:00 +23°C° 0 mm 2 mps 765 mmHg 27%
    15:00 +23°C° 0 mm 1 mps 765 mmHg 28%
    16:00 +23°C° 0 mm 1 mps 764 mmHg 29%
    17:00 +21°C° 0 mm 1 mps 764 mmHg 36%
    18:00 +17°C° 0 mm 2 mps 764 mmHg 42%
    19:00 +15°C° 0 mm 2 mps 765 mmHg 48%
    20:00 +14°C° 0 mm 2 mps 765 mmHg 50%
    21:00 +14°C° 0 mm 2 mps 765 mmHg 53%
    22:00 +13°C° 0 mm 2 mps 766 mmHg 55%
    23:00 +13°C° 0 mm 1 mps 765 mmHg 55%

    24 March, Sunday

    Time Temperature Precipitation Wind Pressure Humidity
    00:00 +12°C° 0 mm 1 mps 765 mmHg 55%
    01:00 +12°C° 0 mm 1 mps 765 mmHg 55%
    02:00 +11°C° 0 mm 1 mps 765 mmHg 54%
    03:00 +11°C° 0 mm 1 mps 765 mmHg 54%
    04:00 +11°C° 0 mm 1 mps 765 mmHg 53%
    05:00 +11°C° 0 mm 1 mps 765 mmHg 54%
    06:00 +11°C° 0 mm 1 mps 765 mmHg 54%
    07:00 +11°C° 0 mm 1 mps 765 mmHg 54%
    08:00 +14°C° 0 mm 1 mps 765 mmHg 48%
    09:00 +16°C° 0 mm 1 mps 765 mmHg 42%
    10:00 +20°C° 0 mm 1 mps 765 mmHg 37%
    11:00 +21°C° 0 mm 1 mps 765 mmHg 35%
    12:00 +22°C° 0 mm 1 mps 765 mmHg 33%
    13:00 +21°C° 0 mm 2 mps 764 mmHg 32%
    14:00 +21°C° 0 mm 2 mps 764 mmHg 34%
    15:00 +21°C° 0 mm 2 mps 763 mmHg 37%
    16:00 +21°C° 0 mm 2 mps 763 mmHg 39%
    17:00 +18°C° 0 mm 2 mps 763 mmHg 47%
    18:00 +16°C° 0 mm 2 mps 762 mmHg 54%
    19:00 +14°C° 0 mm 1 mps 762 mmHg 61%
    20:00 +13°C° 0 mm 1 mps 763 mmHg 63%
    21:00 +13°C° 0 mm 1 mps 763 mmHg 65%
    22:00 +11°C° 0 mm 0 mps 763 mmHg 66%
    23:00 +11°C° 0 mm 0 mps 763 mmHg 67%

    25 March, Monday

    Time Temperature Precipitation Wind Pressure Humidity
    00:00 +10°C° 0 mm 0 mps 762 mmHg 67%
    01:00 +10°C° 0 mm 0 mps 762 mmHg 68%
    02:00 +10°C° 0 mm 0 mps 762 mmHg 68%
    03:00 +9°C° 0 mm 0 mps 762 mmHg 68%
    04:00 +9°C° 0 mm 0 mps 761 mmHg 68%
    05:00 +9°C° 0 mm 0 mps 761 mmHg 67%
    06:00 +9°C° 0 mm 0 mps 761 mmHg 67%
    07:00 +10°C° 0 mm 0 mps 761 mmHg 66%
    08:00 +13°C° 0 mm 1 mps 761 mmHg 60%
    09:00 +15°C° 0 mm 1 mps 761 mmHg 53%
    10:00 +19°C° 0 mm 1 mps 761 mmHg 46%
    11:00 +18°C° 0 mm 2 mps 761 mmHg 44%
    12:00 +19°C° 0 mm 2 mps 760 mmHg 42%
    13:00 +20°C° 0 mm 3 mps 760 mmHg 41%
    14:00 +20°C° 0 mm 3 mps 759 mmHg 42%
    15:00 +19°C° 0 mm 3 mps 759 mmHg 44%
    16:00 +19°C° 0 mm 3 mps 758 mmHg 46%
    17:00 +17°C° 0 mm 3 mps 758 mmHg 55%
    18:00 +15°C° 0 mm 2 mps 758 mmHg 63%
    19:00 +13°C° 0 mm 1 mps 757 mmHg 72%
    20:00 +12°C° 0 mm 1 mps 758 mmHg 75%
    21:00 +12°C° 0 mm 1 mps 758 mmHg 79%
    22:00 +11°C° 0 mm 1 mps 758 mmHg 83%
    23:00 +11°C° 0 mm 1 mps 758 mmHg 84%
    Show more